This is the latest recevied weather packets stored in our database for station/object N5YHM-13. If no packets are shown the sender has not sent any weather packets the latest 10 day(s).
| Time | Temp. | Humidity | Pressure | Rain* | Wind** | Luminosity | Snow |
|---|---|---|---|---|---|---|---|
| 1787924255 | 25.56° C | 97% | 1018.6 hPa | 0 mm | - | 11 W/m² | - |
| 1787923950 | 25.56° C | 98% | 1018.8 hPa | 0 mm | - | 6 W/m² | - |
| 1787923649 | 25° C | 99% | 1018.7 hPa | 0 mm | - | 23 W/m² | - |
| 1787923344 | 24.44° C | 99% | 1018.8 hPa | 0 mm | - | 9 W/m² | - |
| 1787923040 | 24.44° C | 99% | 1018.7 hPa | 0 mm | - | 7 W/m² | - |
| 1787922735 | 23.89° C | 99% | 1018.5 hPa | 0 mm | - | 5 W/m² | - |
| 1787922434 | 23.89° C | 99% | 1018.5 hPa | 0 mm | - | 5 W/m² | - |
| 1787922132 | 23.89° C | 99% | 1018.8 hPa | 0 mm | - | 5 W/m² | - |
| 1787921830 | 23.33° C | 99% | 1018.6 hPa | 0 mm | - | 5 W/m² | - |
| 1787921527 | 23.33° C | 99% | 1018.4 hPa | 0 mm | - | 4 W/m² | - |
| 1787921226 | 23.33° C | 99% | 1018.7 hPa | 0 mm | - | 4 W/m² | - |
| 1787920921 | 23.33° C | 99% | 1018.6 hPa | 0 mm | - | 4 W/m² | - |
| 1787920616 | 23.33° C | 99% | 1018.7 hPa | 0 mm | - | 4 W/m² | - |
| 1787920311 | 22.78° C | 99% | 1018.5 hPa | 0 mm | - | 4 W/m² | - |
| 1787920009 | 22.78° C | 99% | 1018.5 hPa | 0 mm | - | 3 W/m² | - |
| 1787919708 | 22.78° C | 99% | 1018.4 hPa | 0 mm | - | 3 W/m² | - |
| 1787919403 | 22.78° C | 99% | 1018.3 hPa | 0 mm | - | 3 W/m² | - |
| 1787919099 | 22.78° C | 99% | 1018.2 hPa | 1.27 mm | - | 2 W/m² | - |
| 1787918794 | 22.78° C | 99% | 1018.2 hPa | 1.27 mm | - | 2 W/m² | - |
| 1787918494 | 22.78° C | 99% | 1017.9 hPa | 0 mm | - | 2 W/m² | - |
| 1787918192 | 22.78° C | 99% | 1018.1 hPa | 0 mm | - | 1 W/m² | - |
| 1787917887 | 22.78° C | 99% | 1018 hPa | 0 mm | - | 1 W/m² | - |
| 1787917583 | 22.78° C | 99% | 1017.8 hPa | 0 mm | - | 1 W/m² | - |
| 1787917279 | 22.78° C | 99% | 1017.9 hPa | 0 mm | - | 0 W/m² | - |
| 1787916978 | 22.78° C | 99% | 1017.7 hPa | 0 mm | - | 0 W/m² | - |
* Rain latest hour (hover to see other rain measurements)
** Current wind speed in m/s (hover to see current wind gust speed)